Pocatello, ID

5:19 AM MST on December 11, 2017 (GMT -0700)
Pocatello Regional

Weather History for KPIH - January, 2014

Change the Weather History Date:

Monday, January 13, 2014

  Actual Average Record
Temperature  
Mean Temperature 38 °F 24 °F  
Max Temperature 42 °F 32 °F 52 °F (1953)
Min Temperature 34 °F 16 °F -19 °F (1964)
Degree Days  
Heating Degree Days 27 41  
Month to date heating degree days 458 533  
Since 1 July heating degree days 3458 3518  
Cooling Degree Days 0 0  
Month to date cooling degree days 0 0  
Year to date cooling degree days 0 0  
Moisture  
Dew Point 29 °F    
Average Humidity 73    
Maximum Humidity 82    
Minimum Humidity 64    
Precipitation  
Precipitation 0.00 in 0.03 in 0.66 in (1980)
Month to date precipitation 0.44 0.46  
Year to date precipitation 0.44 0.46  
Snow  
Snow 0.00 in - - ()
Month to date snowfall 2.0  
Since 1 July snowfall 11.6  
Snow Depth T in    
Sea Level Pressure  
Sea Level Pressure 30.35 in    
Wind  
Wind Speed 24 mph (SW)    
Max Wind Speed 37 mph    
Max Gust Speed 45 mph    
Visibility 10 miles    
Events      
T = Trace of Precipitation, MM = Missing Value Source: NWS Daily Summary

Daily Weather History Graph

Daily Weather History Graph

Search for Another Location

Airport or City:

Trip Planner

Search our weather history database for the weather conditions in past years. The results will help you decide how hot, cold, wet, or windy it might be!

Date:

Astronomy

Jan. 13, 2014 Rise Set
Actual Time 7:59 AM MST 5:19 PM MST
Civil Twilight 7:27 AM MST 5:50 PM MST
Nautical Twilight 6:52 AM MST 6:25 PM MST
Astronomical Twilight 6:18 AM MST 6:59 PM MST
Moon 3:37 PM MST (1/13) 5:50 AM MST (1/13)
Length of Visible Light 10h 22m
Length of Day
9h 19m
Waxing Gibbous, 95% of the Moon is Illuminated
Jan 13
Waxing Gibbous
Jan 15
Full
Jan 23
Last Quarter
Jan 30
New
Feb 6
First Quarter

Hourly Weather History & Observations

Time (MST) Temp. Windchill Dew Point Humidity Pressure Visibility Wind Dir Wind Speed Gust Speed Precip Events Conditions
12:09 AM 34.0 °F 20.3 °F 28.0 °F 79% 30.22 in 10.0 mi SW 29.9 mph 36.8 mph N/A   Overcast
12:53 AM 35.1 °F 22.7 °F 28.9 °F 78% 30.29 in 10.0 mi WSW 25.3 mph 36.8 mph N/A   Overcast
1:53 AM 36.0 °F 24.7 °F 28.9 °F 76% 30.26 in 10.0 mi WSW 21.9 mph - N/A   Overcast
2:53 AM 36.0 °F 25.0 °F 28.9 °F 76% 30.30 in 10.0 mi WSW 20.7 mph 29.9 mph N/A   Overcast
3:53 AM 35.1 °F 23.8 °F 28.9 °F 78% 30.32 in 10.0 mi WSW 20.7 mph - N/A   Overcast
4:53 AM 35.1 °F 22.5 °F 28.9 °F 78% 30.32 in 10.0 mi WSW 26.5 mph 35.7 mph N/A   Scattered Clouds
5:53 AM 34.0 °F 21.8 °F 28.9 °F 82% 30.33 in 10.0 mi SW 23.0 mph - N/A   Mostly Cloudy
6:53 AM 34.0 °F 21.0 °F 28.9 °F 82% 30.34 in 10.0 mi WSW 26.5 mph 35.7 mph N/A   Scattered Clouds
7:53 AM 35.1 °F 23.0 °F 28.9 °F 78% 30.37 in 10.0 mi WSW 24.2 mph 34.5 mph N/A   Scattered Clouds
8:53 AM 35.1 °F 22.7 °F 28.9 °F 78% 30.37 in 10.0 mi SW 25.3 mph 32.2 mph N/A   Scattered Clouds
9:53 AM 36.0 °F 25.0 °F 28.9 °F 76% 30.37 in 10.0 mi SW 20.7 mph - N/A   Mostly Cloudy
10:15 AM 37.0 °F 24.9 °F 30.0 °F 76% 30.32 in 10.0 mi WSW 27.6 mph 33.4 mph N/A   Scattered Clouds
10:53 AM 37.9 °F 26.1 °F 30.0 °F 73% 30.37 in 10.0 mi WSW 27.6 mph 34.5 mph N/A   Scattered Clouds
11:53 AM 39.0 °F 28.0 °F 32.0 °F 76% 30.36 in 10.0 mi WSW 25.3 mph 39.1 mph N/A   Scattered Clouds
12:53 PM 39.9 °F 27.6 °F 32.0 °F 73% 30.31 in 10.0 mi WSW 34.5 mph 44.9 mph N/A   Scattered Clouds
1:34 PM 41.0 °F 30.5 °F 32.0 °F 70% 30.28 in 10.0 mi WSW 26.5 mph 39.1 mph N/A   Mostly Cloudy
1:53 PM 41.0 °F 30.0 °F 32.0 °F 70% 30.31 in 10.0 mi WSW 28.8 mph 39.1 mph N/A   Mostly Cloudy
2:53 PM 41.0 °F 30.0 °F 30.9 °F 67% 30.31 in 10.0 mi WSW 28.8 mph - N/A   Scattered Clouds
3:53 PM 41.0 °F 29.0 °F 30.9 °F 67% 30.32 in 10.0 mi WSW 35.7 mph 43.7 mph N/A   Scattered Clouds
4:53 PM 39.0 °F 29.0 °F 28.9 °F 67% 30.35 in 10.0 mi SW 20.7 mph 31.1 mph N/A   Partly Cloudy
5:53 PM 37.9 °F 27.6 °F 28.0 °F 68% 30.37 in 10.0 mi SW 20.7 mph - N/A   Partly Cloudy
6:53 PM 37.0 °F 26.2 °F 28.0 °F 70% 30.38 in 10.0 mi SW 21.9 mph - N/A   Clear
7:53 PM 36.0 °F 24.4 °F 28.0 °F 73% 30.40 in 10.0 mi SW 23.0 mph - N/A   Clear
8:53 PM 36.0 °F 24.7 °F 28.0 °F 73% 30.41 in 10.0 mi SW 21.9 mph 31.1 mph N/A   Clear
9:53 PM 35.1 °F 22.2 °F 28.0 °F 76% 30.43 in 10.0 mi WSW 27.6 mph - N/A   Clear
10:53 PM 35.1 °F 24.1 °F 28.0 °F 76% 30.46 in 10.0 mi SW 19.6 mph 27.6 mph N/A   Clear
11:53 PM 34.0 °F 24.6 °F 28.0 °F 79% 30.48 in 10.0 mi SSW 13.8 mph - N/A   Clear